"Pseudo-MPEC" for C2YLFQ2

Created 2020 Aug 15 10:07:06 UT using Find_Orb

Click here for an explanation of pseudo-MPECs

 
 Astrometry: 
     C2YLFQ2  C2020 07 30.36307 22 49 03.13 +06 53 11.2    ~7U9q 21.0 GVNEOCPG96
     C2YLFQ2  C2020 07 30.37030 22 49 06.19 +06 51 31.7    ~7U9q 21.1 GVNEOCPG96
     C2YLFQ2  C2020 07 30.37750 22 49 09.24 +06 49 53.0    ~7U9q       VNEOCPG96
     C2YLFQ2  C2020 07 30.38471 22 49 12.22 +06 48 15.4    ~7U9q 21.4 GVNEOCPG96
     C2YLFQ2  C2020 07 30.47724 22 49 51.09 +06 27 08.2    ~7UC7 20.9 GVNEOCPG96
     C2YLFQ2  C2020 07 30.47921 22 49 51.93 +06 26 41.4    ~7UC7 21.6 GVNEOCPG96
     C2YLFQ2  C2020 07 30.48117 22 49 52.78 +06 26 14.5    ~7UC7 20.8 GVNEOCPG96
     C2YLFQ2  C2020 07 30.48314 22 49 53.35 +06 25 56.3    ~7UC7       VNEOCPG96
     C2YLFQ2 pC2020 07 30jDT'S'9=f5kC)EB@RGadIWb,X_6-!Q43q;i\pZRAstrometrym=RL01
     C2YLFQ2 pC2020 07 3057*6yI_V1redacted;khJ[uL;jO9;Dt*Zj?3]6eLNIclickb'rG]L01
     C2YLFQ2 pC2020 07 30]l%.MZhZ$=hereNsaHXBfor8Q/explanationOgt!;CcBpdYSV8;L01
     C2YLFQ2  C2020 07 31.36523 22 56 33.01 +03 01 41.2    ~7V9b 20.8 GVNEOCPI52
     C2YLFQ2  C2020 07 31.37027 22 56 35.14 +03 00 31.5    ~7V9b 21.8 GVNEOCPI52
     C2YLFQ2  C2020 07 31.38034 22 56 39.33 +02 58 09.1    ~7V9b       VNEOCPI52

Station data:
(G96) Mt. Lemmon Survey  (N32.442754 W110.788720)  US/Arizona.  Observers T.
   A. Pruyne, B. M. Africano, E. J. Christensen, G. A. Farneth, D. C. Fuls,
   A. R. Gibbs, A. D. Grauer, H. Gröller, J. A. Johnson, R. A. Kowalski, S.
   M. Larson, G. J. Leonard, D. Rankin, R. L. Seaman, F. C. Shelly. 1.5-m
   reflector + 10K CCD.
(I52) Steward Observatory, Mt. Lemmon Station  (N32.442547 W110.788920)
   US/Arizona.  Observers T. A. Pruyne, B. M. Africano, E. J. Christensen, G.
   A. Farneth, D. C. Fuls, A. R. Gibbs, A. D. Grauer, H. Gröller, J. A.
   Johnson, R. A. Kowalski, S. M. Larson, G. J. Leonard, D. Rankin, R. L.
   Seaman, F. C. Shelly. 1.0-m reflector + CCD.
(L01) Višnjan Observatory, Tičan  (N45.290900 E13.749300)  Croatia.
   Observers K. Korlević, E. Pettarin. Measurer E. Pettarin. 1.0-m f/2.9
   reflector + CCD.

Orbital elements:  C2YLFQ2
   Perihelion 2020 Jul 22.772532 +/- 0.242 TT = 18:32:26 (JD 2459053.272532)
Epoch 2020 Jul 31.0 TT = JDT 2459061.5   Earth MOID: 0.0850   AutoNEOCP
M   3.58347860 +/- 0.18             (J2000 ecliptic)
n   0.43555060 +/- 0.0184           Peri.  169.31140 +/- 0.25
a   1.72362836 +/- 0.0484           Node   133.55493 +/- 0.07
e   0.3647327 +/- 0.0167            Incl.   24.57811 +/- 0.50
P   2.26/826.52d           H 24.7   G  0.15   U 10.1  
q 1.09496460 +/- 0.002    Q 2.35229213 +/- 0.094
From 14 observations 2020 July 30-31 (24.4 hr); mean residual 1".72
Residuals in arcseconds: 
200730 G96  .44-  .19-    200730 G96  .92+  .92-    200730 L01  .18-  .08-    
200730 G96  .00   1.1-    200730 G96  1.3+  .91-    200731 I52  .20+  .19-    
200730 G96  .50+  1.5-    200730 G96  2.6-  7.9+    200731 I52  .35+  .86+    
200730 G96  .08-  .71-    200730 L01  .19+  .49-    200731 I52  .29-  .15-    
200730 G96  .79+  1.2-    200730 L01  .45-  .79-    

Ephemerides (geocentric):
Date (UTC) HH   RA              Dec         delta   r     elong  mag " sig PA
---- -- -- --  -------------   -----------  ------ ------ -----  --- ---- ---
2020 08 15 10  00 39 06.139   -43 11 59.22  .15142 1.1196 131.9 22.5  209 152
2020 08 15 11  00 39 19.869   -43 16 12.90  .15167 1.1197 131.9 22.5  210 152
2020 08 15 12  00 39 33.574   -43 20 25.61  .15191 1.1198 131.8 22.5  210 152
2020 08 15 13  00 39 47.256   -43 24 37.35  .15216 1.1198 131.8 22.5  210 152
2020 08 15 14  00 40 00.913   -43 28 48.12  .15240 1.1199 131.7 22.5  211 152
2020 08 15 15  00 40 14.546   -43 32 57.93  .15265 1.1200 131.7 22.5  211 152
2020 08 15 16  00 40 28.155   -43 37 06.78  .15290 1.1201 131.6 22.5  212 152
2020 08 15 17  00 40 41.740   -43 41 14.68  .15314 1.1202 131.6 22.5  212 152
2020 08 15 18  00 40 55.300   -43 45 21.63  .15339 1.1203 131.5 22.5  213 152
2020 08 15 19  00 41 08.837   -43 49 27.62  .15364 1.1204 131.5 22.5  213 152
2020 08 15 20  00 41 22.349   -43 53 32.68  .15389 1.1204 131.4 22.5  213 152
2020 08 15 21  00 41 35.837   -43 57 36.79  .15413 1.1205 131.4 22.5  214 152
2020 08 15 22  00 41 49.301   -44 01 39.97  .15438 1.1206 131.3 22.5  214 152
2020 08 15 23  00 42 02.741   -44 05 42.21  .15463 1.1207 131.3 22.6  215 152
2020 08 16 00  00 42 16.156   -44 09 43.52  .15488 1.1208 131.2 22.6  215 152
2020 08 16 01  00 42 29.548   -44 13 43.91  .15513 1.1209 131.2 22.6  215 152
2020 08 16 02  00 42 42.914   -44 17 43.37  .15538 1.1210 131.1 22.6  216 152
2020 08 16 03  00 42 56.257   -44 21 41.91  .15563 1.1210 131.1 22.6  216 152
2020 08 16 04  00 43 09.575   -44 25 39.54  .15588 1.1211 131.0 22.6  217 152
2020 08 16 05  00 43 22.869   -44 29 36.25  .15613 1.1212 131.0 22.6  217 152
2020 08 16 06  00 43 36.139   -44 33 32.05  .15638 1.1213 130.9 22.6  217 152
2020 08 16 07  00 43 49.384   -44 37 26.95  .15663 1.1214 130.9 22.6  218 152
2020 08 16 08  00 44 02.605   -44 41 20.94  .15689 1.1215 130.8 22.6  218 152
2020 08 16 09  00 44 15.802   -44 45 14.04  .15714 1.1216 130.8 22.6  219 152
2020 08 16 10  00 44 28.974   -44 49 06.24  .15739 1.1217 130.7 22.6  219 151
2020 08 16 11  00 44 42.121   -44 52 57.55  .15764 1.1217 130.7 22.6  219 151
2020 08 16 12  00 44 55.245   -44 56 47.96  .15790 1.1218 130.6 22.6  220 151
2020 08 16 13  00 45 08.344   -45 00 37.50  .15815 1.1219 130.6 22.6  220 151
2020 08 16 14  00 45 21.418   -45 04 26.15  .15840 1.1220 130.6 22.6  221 151
2020 08 16 15  00 45 34.468   -45 08 13.92  .15866 1.1221 130.5 22.6  221 151
2020 08 16 16  00 45 47.494   -45 12 00.81  .15891 1.1222 130.5 22.6  221 151
2020 08 16 17  00 46 00.495   -45 15 46.84  .15917 1.1223 130.4 22.6  222 151
2020 08 16 18  00 46 13.471   -45 19 31.99  .15942 1.1224 130.4 22.6  222 151
2020 08 16 19  00 46 26.423   -45 23 16.28  .15968 1.1225 130.3 22.6  222 151
2020 08 16 20  00 46 39.351   -45 26 59.71  .15993 1.1225 130.3 22.6  223 151
2020 08 16 21  00 46 52.254   -45 30 42.28  .16019 1.1226 130.2 22.7  223 151
2020 08 16 22  00 47 05.132   -45 34 23.99  .16044 1.1227 130.2 22.7  223 151
2020 08 16 23  00 47 17.987   -45 38 04.85  .16070 1.1228 130.1 22.7  224 151
2020 08 17 00  00 47 30.816   -45 41 44.86  .16096 1.1229 130.1 22.7  224 151
2020 08 17 01  00 47 43.621   -45 45 24.03  .16121 1.1230 130.1 22.7  225 151
2020 08 17 02  00 47 56.401   -45 49 02.35  .16147 1.1231 130.0 22.7  225 151
2020 08 17 03  00 48 09.157   -45 52 39.84  .16173 1.1232 130.0 22.7  225 151
2020 08 17 04  00 48 21.888   -45 56 16.49  .16198 1.1233 129.9 22.7  226 151
2020 08 17 05  00 48 34.595   -45 59 52.30  .16224 1.1234 129.9 22.7  226 151
2020 08 17 06  00 48 47.277   -46 03 27.29  .16250 1.1235 129.8 22.7  226 151
2020 08 17 07  00 48 59.935   -46 07 01.45  .16276 1.1235 129.8 22.7  227 151
2020 08 17 08  00 49 12.568   -46 10 34.79  .16302 1.1236 129.7 22.7  227 151
2020 08 17 09  00 49 25.176   -46 14 07.31  .16328 1.1237 129.7 22.7  227 151